Starlink 30110

operational
NORAD ID: 57474 Int'l Des: 2023-107 Owner: SPXS Country: US Constellation: starlink
LEOCIRCULAR

About Starlink 30110

Description loading...

Live Position

Loading 3D Globe...

Upcoming Passes

Altitude History

Altitude vs Time

uPlot chart will show altitude changes over time

Two-Line Element Set

1 57474U 23107T 25352.00002315 .00430722 00000-0 43596-2 0 9995
2 57474 42.9882 355.4942 0029787 97.2020 292.4585 15.62622841 5666
Epoch: Dec 18, 2025 • Age: 6 hours

Current Status

Altitude 363.1 km
Velocity 7.71 km/s
Sub-Earth Point 42.98°N, 105°W
Launch Date Jul 28, 2023
Age 2.3 years
Type internet

Technical Details

Classification Payload
Mass 730.00 kg
Dry Mass 700.00 kg
Total Mass 730.00 kg
Length 0.30 m
Diameter 4.10 m
Span 29.00 m
Shape Box + pan
Manufacturer SPXS
Bus Type Starlink V2M
Phase Status In Orbit
Owner/State SPXS/US

Large Constellations

Loading constellations...